,,,PA_Meas_PMT16A,,PR_Meas_QMR101_102,,RH_Meas_QMH101,,SR_Meas_QMS101,,TA_Meas_QMH101,,GenWind,,GenWind,
date,time,status,PA,status,PR,status,RH,status,SR,status,TA,status,DirAvg,status,SpdAvg,
2011-11-10, 00:00:04,VALID,1004.16,VALID,0,VALID,96.0018,VALID,0,VALID,22.9428,VALID,7,VALID,0.574609,
2011-11-10, 00:01:04,VALID,1004.14,VALID,0,VALID,96.04,VALID,0,VALID,22.9622,VALID,7,VALID,0.619922,
2011-11-10, 00:02:04,VALID,1004.12,VALID,0,VALID,96.0247,VALID,0,VALID,22.9622,VALID,8,VALID,0.692578,
2011-11-10, 00:03:04,VALID,1004.14,VALID,0,VALID,96.0476,VALID,0,VALID,22.9622,VALID,8,VALID,0.687891,
2011-11-10, 00:04:04,VALID,1004.13,VALID,0,VALID,96.0323,VALID,0,VALID,22.9622,VALID,8,VALID,0.643359,
2011-11-10, 00:05:04,VALID,1004.14,VALID,0,VALID,96.0323,VALID,0,VALID,22.9622,VALID,8,VALID,0.645703,
2011-11-10, 00:06:04,VALID,1004.11,VALID,0,VALID,96.0857,VALID,0,VALID,22.9817,VALID,8,VALID,0.673437,
2011-11-10, 00:07:04,VALID,1004.13,VALID,0,VALID,96.0629,VALID,0,VALID,22.9817,VALID,8,VALID,0.591016,
2011-11-10, 00:08:04,VALID,1004.1,VALID,0,VALID,96.1239,VALID,0,VALID,23.0224,VALID,8,VALID,0.383984,
2011-11-10, 00:09:04,VALID,1004.12,VALID,0,VALID,96.1773,VALID,0,VALID,23.0401,VALID,7,VALID,0.208984,
2011-11-10, 00:10:04,VALID,1004.11,VALID,0,VALID,96.1697,VALID,0,VALID,23.0401,VALID,8,VALID,0.279297,
2011-11-10, 00:11:04,VALID,1004.1,VALID,0,VALID,96.1239,VALID,0,VALID,23.1002,VALID,8,VALID,0.0566406,
2011-11-10, 00:12:04,VALID,1004.1,VALID,0,VALID,96.04,VALID,0,VALID,23.0401,VALID,8,VALID,0.377734,
2011-11-10, 00:13:04,VALID,1004.04,VALID,0,VALID,96.0629,VALID,0,VALID,23.0206,VALID,7,VALID,0.580078,
2011-11-10, 00:14:04,VALID,1004.06,VALID,0,VALID,96.0857,VALID,0,VALID,23.0613,VALID,8,VALID,0.53125,
2011-11-10, 00:15:04,VALID,1004.04,VALID,0,VALID,96.0934,VALID,0,VALID,23.0401,VALID,7,VALID,0.767969,
2011-11-10, 00:16:04,VALID,1004,VALID,0,VALID,96.0476,VALID,0,VALID,23.0206,VALID,7,VALID,0.689062,
2011-11-10, 00:17:04,VALID,1004.01,VALID,0,VALID,96.0323,VALID,0,VALID,23.0206,VALID,6,VALID,0.791016,
2011-11-10, 00:18:04,VALID,1003.97,VALID,0,VALID,96.0095,VALID,0,VALID,23.0012,VALID,5,VALID,0.641406,
2011-11-10, 00:19:04,VALID,1003.97,VALID,0,VALID,96.0171,VALID,0,VALID,22.9817,VALID,5,VALID,0.623438,
2011-11-10, 00:20:04,VALID,1003.92,VALID,0,VALID,96.0629,VALID,0,VALID,22.9817,VALID,5,VALID,0.467969,
2011-11-10, 00:21:04,VALID,1003.93,VALID,0,VALID,96.0934,VALID,0,VALID,23.0012,VALID,5,VALID,0.385938,
2011-11-10, 00:22:04,VALID,1003.92,VALID,0,VALID,96.101,VALID,0,VALID,23.0012,VALID,5,VALID,0.417188,
2011-11-10, 00:23:04,VALID,1003.92,VALID,0,VALID,96.1086,VALID,0,VALID,23.0012,VALID,5,VALID,0.408594,
2011-11-10, 00:24:04,VALID,1003.91,VALID,0,VALID,96.1468,VALID,0,VALID,23.0206,VALID,5,VALID,0.428906,
2011-11-10, 00:25:04,VALID,1003.91,VALID,0,VALID,96.1773,VALID,0,VALID,23.0401,VALID,5,VALID,0.371094,
2011-11-10, 00:26:04,VALID,1003.9,VALID,0,VALID,96.1849,VALID,0,VALID,23.0595,VALID,5,VALID,0.474219,
2011-11-10, 00:27:04,VALID,1003.89,VALID,0,VALID,96.1544,VALID,0,VALID,23.0595,VALID,5,VALID,0.334766,
2011-11-10, 00:28:04,VALID,1003.88,VALID,0,VALID,96.1544,VALID,0,VALID,23.0595,VALID,5,VALID,0.425,
2011-11-10, 00:29:04,VALID,1003.88,VALID,0,VALID,96.162,VALID,0,VALID,23.0595,VALID,5,VALID,0.402734,
2011-11-10, 00:30:04,VALID,1003.84,VALID,0,VALID,96.1468,VALID,0,VALID,23.0807,VALID,5,VALID,0.426172,
2011-11-10, 00:31:04,VALID,1003.84,VALID,0,VALID,96.2231,VALID,0,VALID,23.1002,VALID,5,VALID,0.442969,
2011-11-10, 00:32:04,VALID,1003.86,VALID,0,VALID,96.1849,VALID,0,VALID,23.1197,VALID,5,VALID,0.532422,
2011-11-10, 00:33:04,VALID,1003.84,VALID,0,VALID,96.1849,VALID,0,VALID,23.0984,VALID,5,VALID,0.528906,
2011-11-10, 00:34:04,VALID,1003.81,VALID,0,VALID,96.1163,VALID,0,VALID,23.079,VALID,5,VALID,0.516406,
2011-11-10, 00:35:04,VALID,1003.82,VALID,0,VALID,96.0781,VALID,0,VALID,23.0595,VALID,5,VALID,0.465625,
2011-11-10, 00:36:04,VALID,1003.83,VALID,0,VALID,96.0705,VALID,0,VALID,23.0418,VALID,5,VALID,0.451953,
2011-11-10, 00:37:04,VALID,1003.81,VALID,0,VALID,96.1544,VALID,0,VALID,23.0613,VALID,5,VALID,0.324609,
2011-11-10, 00:38:04,VALID,1003.86,VALID,0,VALID,96.1315,VALID,0,VALID,23.0807,VALID,5,VALID,0.426172,
2011-11-10, 00:39:04,VALID,1003.85,VALID,0,VALID,96.1697,VALID,0,VALID,23.0807,VALID,5,VALID,0.386328,
2011-11-10, 00:40:04,VALID,1003.86,VALID,0,VALID,96.1392,VALID,0,VALID,23.0807,VALID,5,VALID,0.3375,
2011-11-10, 00:41:04,VALID,1003.85,VALID,0,VALID,96.0934,VALID,0,VALID,23.0206,VALID,5,VALID,0.381641,
2011-11-10, 00:42:04,VALID,1003.84,VALID,0,VALID,96.1086,VALID,0,VALID,23.0012,VALID,5,VALID,0.430859,
2011-11-10, 00:43:04,VALID,1003.81,VALID,0,VALID,96.0857,VALID,0,VALID,23.0012,VALID,5,VALID,0.45,
2011-11-10, 00:44:04,VALID,1003.77,VALID,0,VALID,96.0934,VALID,0,VALID,23.0029,VALID,5,VALID,0.447266,
2011-11-10, 00:45:04,VALID,1003.79,VALID,0,VALID,96.101,VALID,0,VALID,22.9817,VALID,5,VALID,0.553906,
2011-11-10, 00:46:04,VALID,1003.74,VALID,0,VALID,96.101,VALID,0,VALID,22.9834,VALID,5,VALID,0.621875,
2011-11-10, 00:47:04,VALID,1003.72,VALID,0,VALID,96.101,VALID,0,VALID,22.9622,VALID,5,VALID,0.612109,
2011-11-10, 00:48:04,VALID,1003.69,VALID,0,VALID,96.1086,VALID,0,VALID,22.9428,VALID,5,VALID,0.605078,
2011-11-10, 00:49:04,VALID,1003.68,VALID,0,VALID,96.0705,VALID,0,VALID,22.9233,VALID,5,VALID,0.536719,
2011-11-10, 00:50:04,VALID,1003.67,VALID,0,VALID,96.0934,VALID,0,VALID,22.9039,VALID,5,VALID,0.507031,
2011-11-10, 00:51:04,VALID,1003.67,VALID,0,VALID,96.1468,VALID,0,VALID,22.9445,VALID,5,VALID,0.335547,
2011-11-10, 00:52:04,VALID,1003.64,VALID,0,VALID,96.2078,VALID,0,VALID,22.9428,VALID,5,VALID,0.342969,
2011-11-10, 00:53:04,VALID,1003.64,VALID,0,VALID,96.1239,VALID,0,VALID,22.9428,VALID,5,VALID,0.394141,
2011-11-10, 00:54:04,VALID,1003.61,VALID,0,VALID,96.1163,VALID,0,VALID,22.9039,VALID,5,VALID,0.405859,
2011-11-10, 00:55:04,VALID,1003.57,VALID,0,VALID,96.1239,VALID,0,VALID,22.9056,VALID,5,VALID,0.435937,
2011-11-10, 00:56:04,VALID,1003.57,VALID,0,VALID,96.1315,VALID,0,VALID,22.9056,VALID,5,VALID,0.412891,
2011-11-10, 00:57:04,VALID,1003.55,VALID,0,VALID,96.1773,VALID,0,VALID,22.8844,VALID,5,VALID,0.351563,
2011-11-10, 00:58:04,VALID,1003.52,VALID,0,VALID,96.2231,VALID,0,VALID,22.9251,VALID,5,VALID,0.422656,
2011-11-10, 00:59:04,VALID,1003.51,VALID,0,VALID,96.2078,VALID,0,VALID,22.9445,VALID,5,VALID,0.360156,
2011-11-10, 01:00:04,VALID,1003.5,VALID,0,VALID,96.1697,VALID,0,VALID,22.9039,VALID,5,VALID,0.277734,
2011-11-10, 01:01:04,VALID,1003.49,VALID,0,VALID,96.1392,VALID,0,VALID,22.9056,VALID,5,VALID,0.321875,
2011-11-10, 01:02:04,VALID,1003.48,VALID,0,VALID,96.1849,VALID,0,VALID,22.9056,VALID,5,VALID,0.435937,
2011-11-10, 01:03:04,VALID,1003.47,VALID,0,VALID,96.2154,VALID,0,VALID,22.8844,VALID,5,VALID,0.499219,
2011-11-10, 01:04:04,VALID,1003.48,VALID,0,VALID,96.2078,VALID,0,VALID,22.9056,VALID,5,VALID,0.411328,
2011-11-10, 01:05:04,VALID,1003.5,VALID,0,VALID,96.2154,VALID,0,VALID,22.9251,VALID,5,VALID,0.348047,
2011-11-10, 01:06:04,VALID,1003.49,VALID,0,VALID,96.1849,VALID,0,VALID,22.8649,VALID,5,VALID,0.344531,
2011-11-10, 01:07:04,VALID,1003.5,VALID,0,VALID,96.101,VALID,0,VALID,22.8472,VALID,5,VALID,0.424219,
2011-11-10, 01:08:04,VALID,1003.5,VALID,0,VALID,96.1468,VALID,0,VALID,22.8278,VALID,5,VALID,0.415234,
2011-11-10, 01:09:04,VALID,1003.5,VALID,0,VALID,96.2078,VALID,0,VALID,22.8472,VALID,5,VALID,0.516406,
2011-11-10, 01:10:04,VALID,1003.49,VALID,0,VALID,96.1849,VALID,0,VALID,22.8472,VALID,5,VALID,0.683594,
2011-11-10, 01:11:04,VALID,1003.44,VALID,0,VALID,96.162,VALID,0,VALID,22.8066,VALID,4,VALID,0.552734,
2011-11-10, 01:12:04,VALID,1003.43,VALID,0,VALID,96.1239,VALID,0,VALID,22.8083,VALID,4,VALID,0.574219,
2011-11-10, 01:13:04,VALID,1003.41,VALID,0,VALID,96.1163,VALID,0,VALID,22.7677,VALID,4,VALID,0.575,
2011-11-10, 01:14:04,VALID,1003.4,VALID,0,VALID,96.1468,VALID,0,VALID,22.7694,VALID,4,VALID,0.501953,
2011-11-10, 01:15:04,VALID,1003.36,VALID,0,VALID,96.1544,VALID,0,VALID,22.7694,VALID,4,VALID,0.446094,
2011-11-10, 01:16:04,VALID,1003.34,VALID,0,VALID,96.1773,VALID,0,VALID,22.7694,VALID,4,VALID,0.429297,
2011-11-10, 01:17:04,VALID,1003.32,VALID,0,VALID,96.2154,VALID,0,VALID,22.7482,VALID,4,VALID,0.436719,
2011-11-10, 01:18:04,VALID,1003.27,VALID,0,VALID,96.246,VALID,0,VALID,22.7465,VALID,4,VALID,0.366406,
2011-11-10, 01:19:04,VALID,1003.23,VALID,0,VALID,96.2841,VALID,0,VALID,22.8083,VALID,4,VALID,0.475,
2011-11-10, 01:20:04,VALID,1003.2,VALID,0,VALID,96.246,VALID,0,VALID,22.7888,VALID,4,VALID,0.298828,
2011-11-10, 01:21:04,VALID,1003.21,VALID,0,VALID,96.2917,VALID,0,VALID,22.7871,VALID,4,VALID,0.341406,
2011-11-10, 01:22:04,VALID,1003.18,VALID,0,VALID,96.3985,VALID,0,VALID,22.8455,VALID,4,VALID,0.235547,
2011-11-10, 01:23:04,VALID,1003.16,VALID,0,VALID,96.4519,VALID,0,VALID,22.9233,VALID,4,VALID,0.107813,
2011-11-10, 01:24:04,VALID,1003.17,VALID,0,VALID,96.4519,VALID,0,VALID,22.9817,VALID,4,VALID,0.160156,
2011-11-10, 01:25:04,VALID,1003.16,VALID,0,VALID,96.3375,VALID,0,VALID,22.9622,VALID,4,VALID,0.213281,
2011-11-10, 01:26:04,VALID,1003.13,VALID,0,VALID,96.246,VALID,0,VALID,22.9056,VALID,4,VALID,0.447656,
2011-11-10, 01:27:04,VALID,1003.1,VALID,0,VALID,96.2154,VALID,0,VALID,22.8667,VALID,4,VALID,0.426562,
2011-11-10, 01:28:04,VALID,1003.07,VALID,0,VALID,96.1926,VALID,0,VALID,22.826,VALID,4,VALID,0.530078,
2011-11-10, 01:29:04,VALID,1003.07,VALID,0,VALID,96.1392,VALID,0,VALID,22.7871,VALID,4,VALID,0.395703,
2011-11-10, 01:30:04,VALID,1003.04,VALID,0,VALID,96.1239,VALID,0,VALID,22.7287,VALID,4,VALID,0.35,
2011-11-10, 01:31:04,VALID,1003.05,VALID,0,VALID,96.1544,VALID,0,VALID,22.7305,VALID,4,VALID,0.230469,
2011-11-10, 01:32:04,VALID,1003.01,VALID,0,VALID,96.3985,VALID,0,VALID,22.7677,VALID,4,VALID,0.234766,
2011-11-10, 01:33:04,VALID,1002.99,VALID,0,VALID,96.4138,VALID,0,VALID,22.8861,VALID,4,VALID,0.246875,
2011-11-10, 01:34:04,VALID,1003,VALID,0,VALID,96.3528,VALID,0,VALID,22.8861,VALID,4,VALID,0.373437,
2011-11-10, 01:35:04,VALID,1002.98,VALID,0,VALID,96.3833,VALID,0,VALID,22.8861,VALID,4,VALID,0.277734,
2011-11-10, 01:36:04,VALID,1002.91,VALID,0,VALID,96.4367,VALID,0,VALID,22.9428,VALID,4,VALID,0.275391,
2011-11-10, 01:37:04,VALID,1002.9,VALID,0,VALID,96.3604,VALID,0,VALID,22.9445,VALID,4,VALID,0.289063,
2011-11-10, 01:38:04,VALID,1002.87,VALID,0,VALID,96.2688,VALID,0,VALID,22.8649,VALID,4,VALID,0.311719,
2011-11-10, 01:39:04,VALID,1002.83,VALID,0,VALID,96.246,VALID,0,VALID,22.8667,VALID,4,VALID,0.408984,
2011-11-10, 01:40:04,VALID,1002.82,VALID,0,VALID,96.2002,VALID,0,VALID,22.8066,VALID,4,VALID,0.462891,
2011-11-10, 01:41:04,VALID,1002.79,VALID,0,VALID,96.1697,VALID,0,VALID,22.7888,VALID,4,VALID,0.494141,
2011-11-10, 01:42:04,VALID,1002.79,VALID,0,VALID,96.2078,VALID,0,VALID,22.7677,VALID,4,VALID,0.328906,
2011-11-10, 01:43:04,VALID,1002.76,VALID,0,VALID,96.2536,VALID,0,VALID,22.7677,VALID,4,VALID,0.319922,
2011-11-10, 01:44:04,VALID,1002.78,VALID,0,VALID,96.2917,VALID,0,VALID,22.7871,VALID,4,VALID,0.333984,
2011-11-10, 01:45:04,VALID,1002.74,VALID,0,VALID,96.4062,VALID,0,VALID,22.826,VALID,4,VALID,0.375781,
2011-11-10, 01:46:04,VALID,1002.72,VALID,0,VALID,96.4596,VALID,0,VALID,22.9251,VALID,4,VALID,0.389453,
2011-11-10, 01:47:04,VALID,1002.68,VALID,0,VALID,96.4138,VALID,0,VALID,22.9428,VALID,4,VALID,0.257813,
2011-11-10, 01:48:04,VALID,1002.69,VALID,0,VALID,96.3833,VALID,0,VALID,22.9233,VALID,4,VALID,0.234766,
2011-11-10, 01:49:04,VALID,1002.68,VALID,0,VALID,96.3222,VALID,0,VALID,22.9039,VALID,4,VALID,0.323438,
2011-11-10, 01:50:04,VALID,1002.64,VALID,0,VALID,96.2688,VALID,0,VALID,22.8455,VALID,4,VALID,0.404297,
2011-11-10, 01:51:04,VALID,1002.64,VALID,0,VALID,96.3375,VALID,0,VALID,22.8438,VALID,4,VALID,0.365234,
2011-11-10, 01:52:04,VALID,1002.63,VALID,0,VALID,96.3528,VALID,0,VALID,22.8649,VALID,4,VALID,0.384766,
2011-11-10, 01:53:04,VALID,1002.61,VALID,0,VALID,96.3528,VALID,0,VALID,22.9039,VALID,4,VALID,0.498437,
2011-11-10, 01:54:04,VALID,1002.62,VALID,0,VALID,96.368,VALID,0,VALID,22.9056,VALID,4,VALID,0.352734,
2011-11-10, 01:55:04,VALID,1002.59,VALID,0,VALID,96.3985,VALID,0,VALID,22.9445,VALID,4,VALID,0.308984,
2011-11-10, 01:56:04,VALID,1002.6,VALID,0,VALID,96.3833,VALID,0,VALID,22.9233,VALID,4,VALID,0.471094,
2011-11-10, 01:57:04,VALID,1002.57,VALID,0,VALID,96.368,VALID,0,VALID,22.9233,VALID,4,VALID,0.398828,
2011-11-10, 01:58:04,VALID,1002.57,VALID,0,VALID,96.307,VALID,0,VALID,22.9251,VALID,4,VALID,0.204297,
2011-11-10, 01:59:04,VALID,1002.54,VALID,0,VALID,96.307,VALID,0,VALID,22.8844,VALID,4,VALID,0.0449219,
2011-11-10, 02:00:04,VALID,1002.56,VALID,0,VALID,96.3299,VALID,0,VALID,22.9056,VALID,4,VALID,0,
2011-11-10, 02:01:04,VALID,1002.51,VALID,0,VALID,96.3756,VALID,0,VALID,22.9251,VALID,4,VALID,0.00234375,
2011-11-10, 02:02:04,VALID,1002.51,VALID,0,VALID,96.3222,VALID,0,VALID,22.9233,VALID,4,VALID,0.406641,
2011-11-10, 02:03:04,VALID,1002.5,VALID,0,VALID,96.4367,VALID,0,VALID,22.9817,VALID,4,VALID,0.237109,
2011-11-10, 02:04:04,VALID,1002.46,VALID,0,VALID,96.4596,VALID,0,VALID,23.0206,VALID,4,VALID,0.435937,
2011-11-10, 02:05:04,VALID,1002.46,VALID,0,VALID,96.3833,VALID,0,VALID,23.0012,VALID,3,VALID,0.635938,
2011-11-10, 02:06:04,VALID,1002.46,VALID,0,VALID,96.3833,VALID,0,VALID,23.0012,VALID,3,VALID,0.448047,
2011-11-10, 02:07:04,VALID,1002.44,VALID,0,VALID,96.3604,VALID,0,VALID,23.0029,VALID,3,VALID,0.416797,
2011-11-10, 02:08:04,VALID,1002.47,VALID,0,VALID,96.3604,VALID,0,VALID,22.9817,VALID,3,VALID,0.396484,
2011-11-10, 02:09:04,VALID,1002.46,VALID,0,VALID,96.307,VALID,0,VALID,22.9817,VALID,3,VALID,0.35625,
2011-11-10, 02:10:04,VALID,1002.47,VALID,0,VALID,96.1849,VALID,0,VALID,22.9056,VALID,3,VALID,0.395703,
2011-11-10, 02:11:04,VALID,1002.47,VALID,0,VALID,96.2688,VALID,0,VALID,22.8649,VALID,3,VALID,0.35625,
2011-11-10, 02:12:04,VALID,1002.5,VALID,0,VALID,96.3375,VALID,0,VALID,22.9039,VALID,3,VALID,0.40625,
2011-11-10, 02:13:04,VALID,1002.49,VALID,0,VALID,96.3146,VALID,0,VALID,22.8844,VALID,3,VALID,0.569141,
2011-11-10, 02:14:04,VALID,1002.47,VALID,0,VALID,96.3528,VALID,0,VALID,22.9056,VALID,3,VALID,0.49375,
2011-11-10, 02:15:04,VALID,1002.44,VALID,0,VALID,96.2841,VALID,0,VALID,22.9056,VALID,3,VALID,0.6125,
2011-11-10, 02:16:04,VALID,1002.41,VALID,0,VALID,96.246,VALID,0,VALID,22.826,VALID,3,VALID,0.534375,
2011-11-10, 02:17:04,VALID,1002.41,VALID,0,VALID,96.2307,VALID,0,VALID,22.826,VALID,3,VALID,0.582812,
2011-11-10, 02:18:04,VALID,1002.4,VALID,0,VALID,96.2688,VALID,0,VALID,22.8066,VALID,3,VALID,0.553125,
2011-11-10, 02:19:04,VALID,1002.38,VALID,0,VALID,96.3222,VALID,0,VALID,22.826,VALID,3,VALID,0.502344,
2011-11-10, 02:20:04,VALID,1002.38,VALID,0,VALID,96.3909,VALID,0,VALID,22.8455,VALID,3,VALID,0.296094,
2011-11-10, 02:21:04,VALID,1002.35,VALID,0,VALID,96.368,VALID,0,VALID,22.8649,VALID,3,VALID,0.34375,
2011-11-10, 02:22:04,VALID,1002.36,VALID,0,VALID,96.3833,VALID,0,VALID,22.9056,VALID,3,VALID,0.39375,
2011-11-10, 02:23:04,VALID,1002.31,VALID,0,VALID,96.4367,VALID,0,VALID,22.9233,VALID,3,VALID,0.423047,
2011-11-10, 02:24:04,VALID,1002.32,VALID,0,VALID,96.4214,VALID,0,VALID,22.9428,VALID,3,VALID,0.312891,
2011-11-10, 02:25:04,VALID,1002.32,VALID,0,VALID,96.4138,VALID,0,VALID,22.9622,VALID,3,VALID,0.198437,
2011-11-10, 02:26:04,VALID,1002.33,VALID,0,VALID,96.4062,VALID,0,VALID,22.9622,VALID,3,VALID,0.154687,
2011-11-10, 02:27:04,VALID,1002.33,VALID,0,VALID,96.4367,VALID,0,VALID,22.9817,VALID,3,VALID,0.146094,
2011-11-10, 02:28:04,VALID,1002.33,VALID,0,VALID,96.429,VALID,0,VALID,23.0224,VALID,3,VALID,0,
2011-11-10, 02:29:04,VALID,1002.34,VALID,0,VALID,96.429,VALID,0,VALID,23.063,VALID,3,VALID,0,
2011-11-10, 02:30:04,VALID,1002.38,VALID,0,VALID,96.4443,VALID,0,VALID,23.0401,VALID,3,VALID,0.290625,
2011-11-10, 02:31:04,VALID,1002.36,VALID,0,VALID,96.4062,VALID,0,VALID,23.0401,VALID,3,VALID,0.365234,
2011-11-10, 02:32:04,VALID,1002.36,VALID,0,VALID,96.3604,VALID,0,VALID,23.0224,VALID,3,VALID,0.424609,
2011-11-10, 02:33:04,VALID,1002.32,VALID,0,VALID,96.368,VALID,0,VALID,23.0012,VALID,3,VALID,0.516406,
2011-11-10, 02:34:04,VALID,1002.32,VALID,0,VALID,96.3604,VALID,0,VALID,23.0012,VALID,3,VALID,0.544922,
2011-11-10, 02:35:04,VALID,1002.31,VALID,0,VALID,96.4443,VALID,0,VALID,23.0401,VALID,3,VALID,0.293359,
2011-11-10, 02:36:04,VALID,1002.29,VALID,0,VALID,96.4367,VALID,0,VALID,23.1002,VALID,3,VALID,0.345313,
2011-11-10, 02:37:04,VALID,1002.29,VALID,0,VALID,96.3604,VALID,0,VALID,23.0613,VALID,3,VALID,0.233203,
2011-11-10, 02:38:04,VALID,1002.32,VALID,0,VALID,96.3375,VALID,0,VALID,23.0224,VALID,3,VALID,0.278516,
2011-11-10, 02:39:04,VALID,1002.3,VALID,0,VALID,96.3375,VALID,0,VALID,23.0224,VALID,3,VALID,0.278906,
2011-11-10, 02:40:04,VALID,1002.29,VALID,0,VALID,96.429,VALID,0,VALID,23.0206,VALID,3,VALID,0.221094,
2011-11-10, 02:41:04,VALID,1002.31,VALID,0,VALID,96.5206,VALID,0,VALID,23.0984,VALID,3,VALID,0.00703125,
2011-11-10, 02:42:04,VALID,1002.28,VALID,0,VALID,96.5206,VALID,0,VALID,23.1975,VALID,3,VALID,0.0183594,
2011-11-10, 02:43:04,VALID,1002.29,VALID,0,VALID,96.4901,VALID,0,VALID,23.1957,VALID,3,VALID,0,
2011-11-10, 02:44:04,VALID,1002.3,VALID,0,VALID,96.4596,VALID,0,VALID,23.1957,VALID,3,VALID,0.144141,
2011-11-10, 02:45:04,VALID,1002.32,VALID,0,VALID,96.429,VALID,0,VALID,23.194,VALID,3,VALID,0.19375,
2011-11-10, 02:46:04,VALID,1002.29,VALID,0,VALID,96.4367,VALID,0,VALID,23.2347,VALID,3,VALID,0.0101562,
2011-11-10, 02:47:04,VALID,1002.3,VALID,0,VALID,96.4596,VALID,0,VALID,23.2347,VALID,3,VALID,0,
2011-11-10, 02:48:04,VALID,1002.31,VALID,0,VALID,96.4367,VALID,0,VALID,23.2736,VALID,3,VALID,0.230469,
2011-11-10, 02:49:04,VALID,1002.3,VALID,0,VALID,96.4138,VALID,0,VALID,23.2541,VALID,3,VALID,0.300781,
2011-11-10, 02:50:04,VALID,1002.29,VALID,0,VALID,96.3909,VALID,0,VALID,23.2347,VALID,3,VALID,0.49375,
2011-11-10, 02:51:04,VALID,1002.28,VALID,0,VALID,96.429,VALID,0,VALID,23.2559,VALID,3,VALID,0.161719,
2011-11-10, 02:52:04,VALID,1002.26,VALID,0,VALID,96.4062,VALID,0,VALID,23.2559,VALID,3,VALID,0.0105469,
2011-11-10, 02:53:04,VALID,1002.25,VALID,0,VALID,96.3909,VALID,0,VALID,23.2152,VALID,3,VALID,0,
2011-11-10, 02:54:04,VALID,1002.25,VALID,0,VALID,96.3528,VALID,0,VALID,23.2152,VALID,3,VALID,0.315234,
2011-11-10, 02:55:04,VALID,1002.24,VALID,0,VALID,96.3833,VALID,0,VALID,23.2152,VALID,3,VALID,0.0914062,
2011-11-10, 02:56:04,VALID,1002.27,VALID,0,VALID,96.3833,VALID,0,VALID,23.2347,VALID,3,VALID,0.0710938,
2011-11-10, 02:57:04,VALID,1002.23,VALID,0,VALID,96.429,VALID,0,VALID,23.2948,VALID,3,VALID,0.281641,
2011-11-10, 02:58:04,VALID,1002.26,VALID,0,VALID,96.4367,VALID,0,VALID,23.3125,VALID,3,VALID,0.35,
2011-11-10, 02:59:04,VALID,1002.24,VALID,0,VALID,96.4214,VALID,0,VALID,23.332,VALID,3,VALID,0.234375,
2011-11-10, 03:00:04,VALID,1002.25,VALID,0,VALID,96.3985,VALID,0,VALID,23.332,VALID,3,VALID,0.349219,
2011-11-10, 03:01:04,VALID,1002.27,VALID,0,VALID,96.4062,VALID,0.0815089,VALID,23.3532,VALID,3,VALID,0.433984,
2011-11-10, 03:02:04,VALID,1002.29,VALID,0,VALID,96.4138,VALID,0,VALID,23.332,VALID,3,VALID,0.275391,
2011-11-10, 03:03:04,VALID,1002.27,VALID,0,VALID,96.3909,VALID,0.0815089,VALID,23.3302,VALID,3,VALID,0.323047,
2011-11-10, 03:04:04,VALID,1002.28,VALID,0,VALID,96.3985,VALID,0.0815089,VALID,23.3514,VALID,3,VALID,0.308203,
2011-11-10, 03:05:04,VALID,1002.26,VALID,0,VALID,96.3756,VALID,0.0815089,VALID,23.332,VALID,3,VALID,0.502344,
2011-11-10, 03:06:04,VALID,1002.26,VALID,0,VALID,96.368,VALID,0,VALID,23.3514,VALID,3,VALID,0.660547,
2011-11-10, 03:07:04,VALID,1002.24,VALID,0,VALID,96.429,VALID,0.0815089,VALID,23.3497,VALID,359,VALID,0.509766,
2011-11-10, 03:08:04,VALID,1002.24,VALID,0,VALID,96.429,VALID,0.0815089,VALID,23.4098,VALID,359,VALID,0.0304688,
2011-11-10, 03:09:04,VALID,1002.27,VALID,0,VALID,96.4367,VALID,0.0815089,VALID,23.4293,VALID,358,VALID,0,
2011-11-10, 03:10:04,VALID,1002.27,VALID,0,VALID,96.4214,VALID,0,VALID,23.47,VALID,358,VALID,0,
2011-11-10, 03:11:04,VALID,1002.28,VALID,0,VALID,96.429,VALID,0.0815089,VALID,23.4877,VALID,359,VALID,0.0140625,
2011-11-10, 03:12:05,VALID,1002.3,VALID,0,VALID,96.429,VALID,0.0815089,VALID,23.5071,VALID,4,VALID,0.313281,
2011-11-10, 03:13:05,VALID,1002.27,VALID,0,VALID,96.4519,VALID,0,VALID,23.546,VALID,1,VALID,0.112891,
2011-11-10, 03:14:05,VALID,1002.27,VALID,0,VALID,100.869,VALID,0.0815089,VALID,23.6044,VALID,360,VALID,0.226172,
2011-11-10, 03:15:05,VALID,1002.27,VALID,0,VALID,96.6808,VALID,0.0815089,VALID,23.5443,VALID,360,VALID,0.128516,
2011-11-10, 03:16:05,VALID,1002.26,VALID,0,VALID,96.6503,VALID,0.0815089,VALID,23.5655,VALID,360,VALID,0.172266,
2011-11-10, 03:17:05,VALID,1002.25,VALID,0,VALID,96.6503,VALID,0,VALID,23.5637,VALID,360,VALID,0.425391,
2011-11-10, 03:18:05,VALID,1002.25,VALID,0,VALID,96.6579,VALID,0,VALID,23.585,VALID,360,VALID,0.448828,
2011-11-10, 03:19:05,VALID,1002.28,VALID,0,VALID,96.6808,VALID,0,VALID,23.6239,VALID,360,VALID,0.324609,
2011-11-10, 03:20:05,VALID,1002.27,VALID,0,VALID,96.6808,VALID,0,VALID,23.6239,VALID,360,VALID,0.305859,
2011-11-10, 03:21:05,VALID,1002.25,VALID,0,VALID,96.6655,VALID,0,VALID,23.6239,VALID,360,VALID,0.349219,
2011-11-10, 03:22:05,VALID,1002.23,VALID,0,VALID,96.5816,VALID,0,VALID,23.6452,VALID,360,VALID,0.465234,
2011-11-10, 03:23:05,VALID,1002.21,VALID,0,VALID,96.5893,VALID,0,VALID,23.6044,VALID,360,VALID,0.521875,
2011-11-10, 03:24:05,VALID,1002.23,VALID,0,VALID,96.5664,VALID,0,VALID,23.585,VALID,360,VALID,0.512891,
2011-11-10, 03:25:05,VALID,1002.21,VALID,0,VALID,96.6121,VALID,0,VALID,23.6044,VALID,360,VALID,0.364453,
2011-11-10, 03:26:05,VALID,1002.23,VALID,0,VALID,101.746,VALID,0,VALID,23.6646,VALID,360,VALID,0.167578,
2011-11-10, 03:27:05,VALID,1002.23,VALID,0,VALID,102.059,VALID,0.0815089,VALID,23.6628,VALID,356,VALID,0.366406,
2011-11-10, 03:28:05,VALID,1002.2,VALID,0,VALID,104,VALID,0.0815089,VALID,23.7991,VALID,345,VALID,0.252734,
2011-11-10, 03:29:05,VALID,1002.22,VALID,0,VALID,104,VALID,0,VALID,23.7991,VALID,345,VALID,0.209766,
2011-11-10, 03:30:05,VALID,1002.23,VALID,0,VALID,104,VALID,0,VALID,23.8185,VALID,345,VALID,0,
2011-11-10, 03:31:05,VALID,1002.26,VALID,0,VALID,103.257,VALID,0,VALID,23.8185,VALID,345,VALID,0,
2011-11-10, 03:32:05,VALID,1002.26,VALID,0,VALID,102.067,VALID,0,VALID,23.7991,VALID,345,VALID,0,
2011-11-10, 03:33:05,VALID,1002.28,VALID,0,VALID,96.902,VALID,0,VALID,23.8185,VALID,345,VALID,0,
2011-11-10, 03:34:05,VALID,1002.28,VALID,0,VALID,97.0241,VALID,0,VALID,23.8575,VALID,345,VALID,0.255078,
2011-11-10, 03:35:05,VALID,1002.29,VALID,0,VALID,101.945,VALID,0,VALID,23.8575,VALID,345,VALID,0.466406,
2011-11-10, 03:36:05,VALID,1002.3,VALID,0,VALID,102.479,VALID,0,VALID,23.9353,VALID,345,VALID,0.579687,
2011-11-10, 03:37:05,VALID,1002.33,VALID,0,VALID,102.326,VALID,0,VALID,23.9159,VALID,342,VALID,0.601563,
2011-11-10, 03:38:05,VALID,1002.34,VALID,0,VALID,102.196,VALID,0,VALID,23.9548,VALID,345,VALID,0.978906,
2011-11-10, 03:39:05,VALID,1002.38,VALID,0,VALID,102.883,VALID,0,VALID,24.015,VALID,342,VALID,0.749219,
2011-11-10, 03:40:05,VALID,1002.35,VALID,0,VALID,102.875,VALID,0,VALID,24.0521,VALID,348,VALID,0.744922,
2011-11-10, 03:41:05,VALID,1002.4,VALID,0,VALID,103.333,VALID,0,VALID,24.1494,VALID,350,VALID,1.01719,
2011-11-10, 03:42:05,VALID,1002.4,VALID,0,VALID,104,VALID,0,VALID,24.2078,VALID,356,VALID,0.0492188,
2011-11-10, 03:43:05,VALID,1002.45,VALID,0,VALID,104,VALID,0,VALID,24.2097,VALID,356,VALID,0.0179687,
2011-11-10, 03:44:05,VALID,1002.45,VALID,0,VALID,102.998,VALID,0,VALID,24.2291,VALID,356,VALID,0,
2011-11-10, 03:45:05,VALID,1002.46,VALID,0,VALID,96.6503,VALID,0,VALID,24.1884,VALID,356,VALID,0,
2011-11-10, 03:46:05,VALID,1002.52,VALID,0,VALID,96.4748,VALID,0.0815089,VALID,24.1689,VALID,356,VALID,0,
2011-11-10, 03:47:05,VALID,1002.51,VALID,0,VALID,96.4672,VALID,0,VALID,24.1513,VALID,356,VALID,0.003125,
2011-11-10, 03:48:05,VALID,1002.51,VALID,0,VALID,96.5893,VALID,0,VALID,24.1902,VALID,286,VALID,0.742188,